Theta_e
305 306 306 305 304 305 303 304 302 303 306 309 313 315 315 319 325 326 330 331 333 332 333 335 336 337 337 338 337 341 340 336 335 334 333 334 335 341 347 351 352 354 353 356
304 307 307 304 306 306 306 306 305 307 309 315 319 322 320 325 326 326 328 329 331 332 335 336 337 337 339 339 339 343 340 338 336 335 333 331 333 340 348 350 352 353 354 353
300 306 305 301 308 309 309 308 310 306 314 317 317 321 324 325 327 326 326 328 331 332 332 334 336 341 336 337 338 339 340 344 338 338 338 339 340 343 346 350 355 352 351 349
301 304 295 307 314 311 311 314 316 316 314 315 315 320 322 321 323 325 326 328 332 330 330 333 337 340 338 338 340 341 341 343 344 342 341 340 342 343 345 349 349 346 347 347
300 299 304 304 307 306 308 310 317 315 316 317 317 317 317 317 323 324 328 328 332 333 332 333 334 336 335 332 339 340 340 341 342 344 343 340 338 341 342 343 341 343 349 354
303 296 295 304 309 313 316 306 317 316 317 318 317 308 311 319 321 321 329 329 328 329 330 331 333 333 331 330 330 332 334 336 343 344 342 342 344 341 340 342 341 343 343 350
303 299 304 313 316 319 303 307 318 318 317 317 312 313 318 320 324 326 328 328 329 329 330 333 334 334 332 331 330 334 335 335 334 337 340 344 343 345 342 342 342 346 347 349
304 301 297 318 316 309 315 321 319 320 319 317 319 317 321 323 324 326 327 326 328 328 330 332 334 333 331 328 333 335 336 334 333 333 334 337 340 342 344 345 343 342 340 338
307 306 319 320 320 322 323 321 322 322 322 319 320 322 324 324 325 326 326 329 329 327 329 331 333 333 329 332 334 334 334 336 336 332 330 336 337 339 337 342 341 341 339 339
310 314 315 319 321 322 325 322 322 318 321 322 322 322 324 324 325 326 327 327 327 327 327 329 332 332 332 333 333 332 332 333 337 339 332 335 335 333 332 333 334 333 332 332
310 312 315 318 322 322 320 321 321 322 322 321 322 323 323 324 327 327 328 328 328 329 328 328 330 330 332 332 332 329 330 330 333 331 332 336 336 334 332 336 330 331 330 331
304 315 317 318 321 320 317 317 318 316 318 322 323 323 325 324 326 326 327 328 327 326 326 328 328 329 332 333 331 329 327 325 325 324 323 325 334 333 317 315 310 305 301 310
313 316 322 320 321 320 316 315 318 319 321 320 322 327 327 326 327 324 325 326 325 327 327 328 329 327 329 331 331 330 328 327 324 323 325 327 327 328 329 326 307 303 299 299
317 319 319 321 318 321 320 321 321 320 323 322 324 325 328 326 327 326 326 326 328 327 326 328 327 327 328 329 330 329 328 318 324 326 323 322 323 327 327 328 326 327 304 304
314 318 322 322 319 317 319 320 318 320 321 322 323 324 324 324 325 324 326 328 326 329 326 326 326 328 330 328 327 326 324 324 325 324 323 321 322 323 326 328 327 328 330 309
317 317 319 318 313 315 316 317 319 317 319 319 320 320 321 324 324 324 327 326 323 323 325 324 325 327 328 326 327 323 324 323 319 324 323 323 323 326 325 331 331 327 326 325
314 315 316 316 317 316 317 318 320 320 319 320 320 321 321 323 325 324 326 325 325 325 325 325 324 325 323 325 323 320 320 322 323 323 323 323 325 326 332 331 330 330 327 316
317 313 315 315 316 319 315 319 320 321 323 324 324 322 321 322 322 325 324 325 327 326 324 324 322 321 323 324 323 319 320 320 321 322 323 324 323 324 326 328 326 325 322 317
316 314 313 313 315 320 320 322 323 323 323 326 323 322 323 325 327 326 327 324 324 325 320 322 318 319 324 324 319 318 319 320 320 320 321 319 323 324 322 325 326 323 322 320
318 317 314 313 324 323 323 323 323 322 322 321 321 321 322 326 327 326 327 325 327 323 324 322 321 322 327 327 322 316 317 319 317 320 321 321 321 321 322 316 322 322 320 318
319 320 320 320 320 321 320 321 319 318 319 320 321 322 323 325 324 324 324 318 326 323 322 320 319 320 320 315 314 314 315 318 316 317 316 316 317 321 323 322 321 321 320 319
320 319 318 318 318 319 319 319 320 320 322 322 323 321 321 322 325 325 328 324 323 312 318 318 319 313 314 311 313 316 318 318 318 318 316 317 316 319 320 323 323 323 323 320
318 319 320 318 319 319 320 322 322 322 322 322 324 324 321 319 319 318 318 328 324 314 319 318 312 311 311 314 313 315 317 316 316 316 318 319 315 318 320 320 320 322 321 319
319 320 320 321 322 321 321 324 321 323 323 320 326 328 323 320 321 321 321 313 310 315 319 317 313 311 306 314 313 316 317 318 316 315 316 304 315 316 318 321 320 322 321 316
316 315 316 321 321 318 321 321 323 321 325 324 324 328 326 325 319 322 323 322 313 315 320 312 310 311 314 314 313 316 317 316 315 314 315 316 313 314 317 318 320 320 320 319
317 314 315 316 322 319 318 318 315 315 317 317 318 319 319 321 320 322 325 319 320 317 321 321 316 315 316 317 317 316 315 315 315 315 314 316 314 316 316 317 317 318 319 320
316 307 315 316 316 318 317 316 316 315 314 317 316 318 318 318 320 316 315 321 322 324 321 320 321 316 319 316 316 317 315 317 312 316 317 316 317 318 316 316 318 317 317 317
Wind_Speed
20 23 23 23 25 23 21 20 20 17 4 4 11 11 5 6 6 12 7 8 7 6 5 5 6 8 7 6 3 6 3 5 1 6 14 20 25 24 19 12 9 9 10 8
21 21 23 24 25 23 23 17 23 10 13 7 7 13 5 8 2 9 6 6 10 9 9 10 4 2 2 3 5 1 2 4 5 8 8 12 11 11 7 9 10 9 9 9
18 20 21 19 17 18 25 11 22 14 15 13 11 9 9 8 10 6 5 7 7 8 10 10 9 5 5 4 2 3 3 2 6 4 3 5 4 5 6 7 5 7 7 9
15 17 19 8 14 13 21 17 15 16 16 15 12 11 8 7 8 7 1 5 10 7 9 9 10 11 5 6 2 4 4 4 3 7 7 7 5 6 5 3 4 5 7 8
11 14 16 15 7 10 15 10 16 13 9 10 13 9 6 9 7 9 6 8 10 10 9 6 9 10 11 12 10 9 8 7 6 5 4 2 3 6 4 5 3 2 5 4
11 7 16 4 11 17 23 11 10 10 12 12 10 8 7 9 8 9 3 9 9 12 10 11 8 9 9 9 9 10 9 11 9 6 3 3 1 6 4 3 4 4 4 6
4 5 8 12 17 9 11 6 6 7 10 16 7 4 7 11 4 4 7 11 11 12 11 11 10 10 10 10 9 6 7 5 6 7 8 6 2 1 0 1 1 3 5 6
1 7 4 13 9 6 2 4 2 5 6 6 8 10 9 9 6 8 9 11 12 10 10 10 10 9 9 9 8 7 5 5 6 4 5 6 7 7 5 2 2 5 5 5
9 4 11 12 7 3 3 4 8 6 11 8 9 8 8 8 6 6 8 7 9 10 9 8 8 8 9 8 9 8 8 6 5 3 5 4 4 4 4 4 6 6 7 6
11 2 3 1 2 4 12 14 9 7 9 6 7 4 7 6 6 6 6 7 8 8 8 7 7 7 7 7 7 7 8 8 6 3 2 2 3 5 6 6 6 6 6 5
5 8 7 8 6 4 9 16 19 14 7 8 5 6 6 6 5 6 6 6 5 6 5 6 6 5 6 6 7 8 8 7 6 4 5 6 3 2 1 3 2 3 5 5
3 2 4 4 2 3 12 13 15 20 15 7 8 4 6 4 4 5 5 5 5 7 7 8 7 6 6 6 6 6 8 7 7 6 7 6 3 5 10 10 7 5 6 3
9 4 8 7 5 12 12 4 8 11 11 9 7 9 8 7 6 5 7 7 6 7 6 5 5 6 6 8 6 6 5 8 6 5 6 5 5 4 4 3 8 9 8 7
6 2 8 8 4 10 12 13 15 15 7 5 7 5 4 7 6 5 1 1 6 2 4 3 5 7 4 6 7 7 8 13 7 4 6 7 7 4 4 3 4 2 6 7
7 5 9 13 16 12 14 10 9 6 7 5 6 5 7 5 5 3 5 4 2 2 3 6 7 6 5 6 8 8 9 7 5 5 5 6 7 7 5 2 1 3 2 3
7 9 8 6 17 13 17 19 13 6 9 7 5 4 2 4 6 5 4 3 4 5 6 5 5 6 7 8 8 8 8 10 7 6 6 6 7 3 4 2 2 4 4 5
14 5 5 2 6 9 10 7 8 9 6 6 4 3 6 4 4 4 4 2 5 3 4 3 5 7 8 9 8 8 8 8 4 9 8 8 9 7 2 3 2 2 4 5
21 16 18 14 15 6 9 3 5 7 9 6 4 3 2 3 2 1 1 2 6 5 3 6 5 6 7 6 6 8 8 8 8 7 9 7 8 8 7 6 5 4 5 3
18 15 3 26 26 14 7 8 8 7 4 3 3 2 3 3 4 1 2 4 6 7 5 4 1 7 9 4 5 7 7 4 6 7 7 9 7 6 6 6 4 5 4 4
18 13 20 26 17 15 12 7 7 7 8 8 7 5 5 5 3 3 3 6 7 2 3 5 5 7 9 5 5 8 8 7 4 2 2 5 4 6 4 2 4 2 1 2
19 11 11 12 11 9 8 6 8 7 4 1 3 5 5 6 7 6 6 6 4 6 4 6 8 7 3 5 8 10 9 5 6 1 2 7 3 3 3 3 2 3 3 2
10 9 9 7 4 5 4 3 2 5 8 9 7 7 8 6 8 7 7 5 2 4 3 7 4 3 5 8 8 12 11 5 4 4 1 6 3 3 3 3 4 4 2 3
7 9 6 1 4 3 4 9 8 7 5 4 4 6 5 6 7 6 5 7 4 4 3 5 7 4 6 6 9 12 14 7 6 6 3 5 4 6 6 2 1 3 1 2
9 11 12 11 6 8 5 4 4 7 3 5 10 9 7 5 8 8 6 3 6 7 6 4 8 9 8 7 9 11 11 4 5 7 6 4 6 4 3 7 6 6 5 4
8 10 14 15 8 2 3 5 5 8 10 10 7 5 9 5 4 7 6 2 8 7 8 2 11 11 7 9 10 10 9 7 4 6 8 7 7 9 3 3 9 8 6 6
7 6 9 16 7 6 5 6 3 4 7 8 8 8 7 5 5 7 5 4 7 5 4 7 7 9 10 11 10 10 9 9 7 5 5 6 7 6 7 3 6 8 8 9
4 4 4 4 8 7 5 4 5 4 6 9 9 7 5 6 6 5 8 7 7 5 6 8 10 7 10 6 9 8 5 7 10 7 5 8 7 10 7 7 6 6 6 6
Wind_Direction
298 302 299 292 287 288 293 289 281 299 36 53 312 281 253 277 320 293 47 65 22 71 66 55 46 52 50 28 91 78 25 300 184 161 143 164 171 199 207 216 214 202 218 209
283 281 278 278 277 272 268 279 271 347 77 253 257 291 296 22 64 60 10 19 44 28 47 46 78 99 167 9 327 99 76 183 209 194 187 188 214 224 232 215 179 199 209 213
289 293 287 280 9 359 352 2 360 346 47 39 13 9 10 6 353 43 13 42 66 59 38 29 6 27 56 74 91 70 302 230 168 209 208 232 272 305 239 211 167 201 220 220
280 281 282 13 20 17 329 50 34 36 32 35 9 327 325 329 339 306 22 57 70 62 54 33 30 22 103 107 84 81 61 35 95 184 203 208 232 261 252 292 210 203 232 238
283 273 285 59 7 329 280 11 24 5 2 8 357 348 46 347 7 34 300 64 100 89 65 55 56 45 46 33 27 38 42 39 48 34 22 108 22 340 340 191 268 260 204 250
316 324 297 101 202 238 252 279 25 3 9 3 336 355 352 325 321 298 133 65 68 63 67 55 75 78 64 54 35 20 3 13 6 32 38 36 125 193 208 218 222 243 261 256
222 261 269 353 350 296 278 342 14 19 32 39 39 311 292 306 293 108 69 83 76 65 61 61 49 48 53 50 45 49 30 11 22 5 15 26 56 76 294 266 212 243 267 263
149 229 268 3 19 15 339 314 347 75 71 99 167 183 238 239 48 67 85 84 80 77 67 47 41 48 49 39 10 10 52 37 24 12 32 -0 0 358 348 310 289 284 281 285
314 337 31 350 84 85 327 342 355 58 140 170 253 188 125 107 88 66 73 79 74 78 70 65 56 44 41 24 5 354 351 6 16 358 42 8 342 311 301 294 246 262 236 228
285 13 118 156 287 358 25 13 16 21 272 135 90 89 114 108 101 76 67 67 67 75 70 59 58 47 44 25 5 353 346 326 322 296 131 236 312 10 353 347 352 341 326 339
48 333 314 19 59 55 44 20 3 313 9 87 68 109 79 74 86 100 93 75 69 67 52 56 55 66 54 34 7 344 338 311 309 353 230 170 190 240 285 298 280 281 296 297
231 273 93 35 347 89 62 61 13 296 297 93 119 73 112 110 65 53 79 84 60 61 57 42 30 12 13 22 7 346 324 344 333 328 320 293 205 186 221 222 201 235 258 252
298 329 112 120 129 116 103 113 250 259 24 23 57 72 57 75 50 11 30 44 46 66 66 23 344 8 358 342 346 329 325 301 308 291 294 316 312 304 49 241 232 225 226 223
209 224 127 48 208 139 160 201 230 264 94 46 67 56 117 90 89 78 178 55 75 6 351 298 298 297 18 340 320 323 309 280 265 322 337 310 304 338 344 302 323 323 208 216
268 216 171 194 95 54 307 245 241 122 96 84 73 68 77 108 133 129 38 80 291 261 333 352 348 340 7 338 327 307 298 304 329 311 298 282 275 260 275 267 107 318 341 180
274 220 197 127 133 125 243 252 204 121 97 66 66 82 81 103 81 73 73 32 9 341 349 333 317 358 2 332 303 313 298 284 252 268 279 277 272 194 226 234 4 307 330 21
297 235 203 271 86 187 261 202 106 76 58 67 80 14 353 71 121 124 200 206 280 318 324 358 3 3 336 300 337 321 312 309 359 309 334 10 15 23 46 30 348 348 63 78
82 48 348 339 277 88 315 229 117 120 129 151 174 205 270 260 209 224 295 295 289 318 26 40 23 339 306 304 329 306 293 349 332 350 344 355 0 10 7 15 359 25 99 104
86 78 200 263 278 186 151 84 93 146 132 162 95 207 312 60 94 65 144 280 298 288 73 348 312 278 258 299 278 309 301 353 337 342 355 334 350 13 5 16 359 46 10 9
128 174 226 241 74 67 59 350 45 39 25 16 4 329 298 115 170 230 269 266 284 50 37 295 297 281 270 288 240 296 296 286 289 243 341 325 356 348 348 40 337 45 34 35
324 46 52 45 54 43 30 34 24 31 17 278 340 4 16 19 341 324 299 304 132 151 269 260 242 286 36 355 317 292 281 285 303 45 325 301 323 42 330 274 278 228 182 163
358 15 14 46 69 85 61 28 81 17 50 49 26 357 339 314 284 273 215 229 127 209 324 313 356 91 330 322 302 294 295 244 260 185 236 271 274 150 173 203 238 275 275 156
345 324 320 354 61 40 16 55 39 22 11 335 290 269 272 293 295 289 294 174 243 172 291 298 126 193 277 285 281 280 286 299 307 296 266 242 313 228 160 172 167 153 198 229
343 337 334 324 33 49 57 14 356 327 28 288 273 258 266 320 318 341 47 77 148 184 269 255 187 206 240 271 275 277 287 305 309 287 309 309 282 310 136 177 163 165 166 191
23 358 345 323 330 124 166 226 219 246 246 252 263 287 293 233 154 265 288 285 212 242 293 203 194 208 241 266 268 274 293 290 342 334 315 311 283 294 268 314 155 154 170 178
46 3 339 312 301 13 342 286 276 336 14 12 7 352 332 343 347 289 312 16 315 256 310 318 251 231 230 251 271 294 301 301 301 296 302 282 297 305 300 289 166 172 185 192
95 5 227 275 305 249 251 13 355 356 5 8 341 326 353 314 322 309 291 300 301 267 281 258 271 265 275 289 302 286 285 343 322 282 293 298 322 330 299 309 294 266 240 213